Anaktuvuk Pass, AK

5:34 PM AKDT on May 22, 2018 (GMT -0800)
Anaktuvuk Pass

Weather History for PAKP - May, 2014

Change the Weather History Date:

Wednesday, May 14, 2014

  Actual Average Record
Temperature  
Mean Temperature 34 °F -  
Max Temperature 46 °F 34 °F 57 °F (2015)
Min Temperature 21 °F 18 °F -2 °F (2000)
Degree Days  
Heating Degree Days 32    
Moisture  
Dew Point 20 °F    
Average Humidity 55    
Maximum Humidity 86    
Minimum Humidity 34    
Precipitation  
Precipitation 0.00 in - - ()
Sea Level Pressure  
Sea Level Pressure 30.37 in    
Wind  
Wind Speed 6 mph (SSW)    
Max Wind Speed 15 mph    
Max Gust Speed 21 mph    
Visibility 10 miles    
Events      
Averages and records for this station are not official NWS values.
T = Trace of Precipitation, MM = Missing Value Source: NWS Daily Summary

Daily Weather History Graph

Daily Weather History Graph

Search for Another Location

Airport or City:

Astronomy

May. 14, 2014 Rise Set
Actual Time 3:55 AM AKDT 12:16 AM AKDT
Civil Twilight Sun does not set Sun does not set
Nautical Twilight Sun does not set Sun does not set
Astronomical Twilight Sun does not set Sun does not set
Moon No Moon Rise 4:46 AM AKDT (5/14)
Length of Visible Light 24h 00m
Length of Day
20h 21m
Full, 100% of the Moon is Illuminated
May 14
Full
May 21
Last Quarter
May 28
New
Jun 5
First Quarter
Jun 12
Full

Hourly Weather History & Observations

Time (AKDT) Temp. Windchill Dew Point Humidity Pressure Visibility Wind Dir Wind Speed Gust Speed Precip Events Conditions
12:16 AM 28.4 °F - 19.4 °F 69% 30.37 in 10.0 mi Calm Calm - N/A   Overcast
12:36 AM 28.4 °F - 19.4 °F 69% 30.37 in 10.0 mi Calm Calm - N/A   Overcast
1:16 AM 24.8 °F - 19.4 °F 80% 30.37 in 10.0 mi Calm Calm - N/A   Mostly Cloudy
1:36 AM 23.0 °F - 17.6 °F 80% 30.37 in 10.0 mi Calm Calm - N/A   Partly Cloudy
1:56 AM 24.8 °F 20.5 °F 19.4 °F 80% 30.37 in 10.0 mi South 3.5 mph - N/A   Clear
2:16 AM 24.8 °F 17.9 °F 17.6 °F 74% 30.38 in 10.0 mi WSW 5.8 mph - N/A   Clear
2:36 AM 24.8 °F 17.9 °F 17.6 °F 74% 30.38 in 10.0 mi SSW 5.8 mph - N/A   Clear
2:56 AM 21.2 °F 16.4 °F 15.8 °F 80% 30.38 in 10.0 mi SSW 3.5 mph - N/A   Clear
3:16 AM 23.0 °F 17.0 °F 17.6 °F 80% 30.38 in 10.0 mi SSW 4.6 mph - N/A   Clear
3:36 AM 23.0 °F 18.4 °F 17.6 °F 80% 30.39 in 10.0 mi SSW 3.5 mph - N/A   Clear
3:56 AM 21.2 °F - 15.8 °F 80% 30.38 in 10.0 mi Calm Calm - N/A   Clear
4:16 AM 21.2 °F - 15.8 °F 80% 30.39 in 10.0 mi Calm Calm - N/A   Clear
4:36 AM 21.2 °F - 17.6 °F 86% 30.38 in 10.0 mi Calm Calm - N/A   Clear
4:56 AM 23.0 °F - 17.6 °F 80% 30.38 in 10.0 mi Calm Calm - N/A   Clear
5:16 AM 21.2 °F - 17.6 °F 86% 30.38 in 10.0 mi Calm Calm - N/A   Clear
5:36 AM 23.0 °F 15.8 °F 17.6 °F 80% 30.38 in 10.0 mi South 5.8 mph - N/A   Clear
5:56 AM 24.8 °F 15.3 °F 19.4 °F 80% 30.38 in 10.0 mi SSW 9.2 mph - N/A   Clear
6:56 AM 28.4 °F 18.5 °F 19.4 °F 69% 30.38 in 10.0 mi SSE 11.5 mph - N/A   Clear
7:16 AM 28.4 °F 19.7 °F 19.4 °F 69% 30.39 in 10.0 mi SSW 9.2 mph - N/A   Clear
7:36 AM 28.4 °F 20.4 °F 19.4 °F 69% 30.39 in 10.0 mi South 8.1 mph - N/A   Clear
7:56 AM 30.2 °F 22.6 °F 21.2 °F 69% 30.39 in 10.0 mi SSW 8.1 mph - N/A   Clear
8:16 AM 30.2 °F 21.9 °F 21.2 °F 69% 30.39 in 10.0 mi SSW 9.2 mph - N/A   Clear
8:36 AM 30.2 °F 20.8 °F 21.2 °F 69% 30.39 in 10.0 mi South 11.5 mph - N/A   Clear
8:56 AM 32.0 °F 23.6 °F 21.2 °F 64% 30.39 in 10.0 mi South 10.4 mph - N/A   Clear
9:16 AM 33.8 °F 25.3 °F 21.2 °F 60% 30.39 in 10.0 mi SSW 11.5 mph - N/A   Clear
9:36 AM 33.8 °F 25.3 °F 21.2 °F 60% 30.38 in 10.0 mi SSW 11.5 mph 17.3 mph N/A   Clear
9:56 AM 35.6 °F 26.6 °F 19.4 °F 52% 30.38 in 10.0 mi SSW 13.8 mph - N/A   Clear
10:16 AM 35.6 °F 26.2 °F 21.2 °F 56% 30.38 in 10.0 mi SSW 15.0 mph 20.7 mph N/A   Clear
10:36 AM 35.6 °F 26.6 °F 21.2 °F 56% 30.39 in 10.0 mi SSW 13.8 mph 19.6 mph N/A   Clear
10:56 AM 35.6 °F 26.2 °F 21.2 °F 56% 30.39 in 10.0 mi South 15.0 mph - N/A   Clear
11:16 AM 37.4 °F 28.5 °F 21.2 °F 52% 30.38 in 10.0 mi South 15.0 mph - N/A   Clear
11:36 AM 37.4 °F 29.3 °F 21.2 °F 52% 30.39 in 10.0 mi SSW 12.7 mph 17.3 mph N/A   Clear
11:56 AM 39.2 °F 30.8 °F 21.2 °F 49% 30.39 in 10.0 mi South 15.0 mph - N/A   Clear
12:16 PM 39.2 °F 33.6 °F 21.2 °F 49% 30.39 in 10.0 mi SW 8.1 mph 16.1 mph N/A   Clear
12:36 PM 39.2 °F 31.6 °F 21.2 °F 49% 30.39 in 10.0 mi SSW 12.7 mph - N/A   Clear
12:56 PM 41.0 °F 34.3 °F 21.2 °F 45% 30.39 in 10.0 mi SSW 11.5 mph - N/A   Clear
1:16 PM 41.0 °F 34.3 °F 21.2 °F 45% 30.39 in 10.0 mi SW 11.5 mph 18.4 mph N/A   Clear
1:36 PM 41.0 °F 34.3 °F 21.2 °F 45% 30.39 in 10.0 mi SW 11.5 mph - N/A   Clear
1:56 PM 42.8 °F 36.2 °F 19.4 °F 39% 30.39 in 10.0 mi SW 12.7 mph 18.4 mph N/A   Clear
2:16 PM 42.8 °F 37.0 °F 19.4 °F 39% 30.39 in 10.0 mi SSW 10.4 mph - N/A   Clear
2:36 PM 42.8 °F 38.0 °F 19.4 °F 39% 30.39 in 10.0 mi SSW 8.1 mph - N/A   Clear
2:56 PM 42.8 °F 37.5 °F 19.4 °F 39% 30.38 in 10.0 mi SSW 9.2 mph - N/A   Clear
3:16 PM 42.8 °F 39.3 °F 19.4 °F 39% 30.38 in 10.0 mi SW 5.8 mph - N/A   Clear
3:36 PM 44.6 °F 38.8 °F 19.4 °F 37% 30.37 in 10.0 mi SW 11.5 mph 16.1 mph N/A   Clear
3:56 PM 44.6 °F 40.2 °F 19.4 °F 37% 30.37 in 10.0 mi WSW 8.1 mph - N/A   Clear
4:16 PM 44.6 °F 39.7 °F 19.4 °F 37% 30.37 in 10.0 mi WSW 9.2 mph - N/A   Clear
4:36 PM 44.6 °F 38.8 °F 19.4 °F 37% 30.37 in 10.0 mi SW 11.5 mph 18.4 mph N/A   Clear
4:56 PM 46.4 °F 41.5 °F 19.4 °F 34% 30.37 in 10.0 mi SW 10.4 mph 16.1 mph N/A   Scattered Clouds
5:16 PM 44.6 °F 39.7 °F 19.4 °F 37% 30.36 in 10.0 mi SSW 9.2 mph - N/A   Scattered Clouds
5:36 PM 44.6 °F 39.7 °F 19.4 °F 37% 30.37 in 10.0 mi SW 9.2 mph - N/A   Clear
5:56 PM 44.6 °F 40.2 °F 19.4 °F 37% 30.36 in 10.0 mi WSW 8.1 mph - N/A   Partly Cloudy
6:16 PM 44.6 °F 40.2 °F 19.4 °F 37% 30.36 in 10.0 mi SW 8.1 mph - N/A   Clear
6:36 PM 46.4 °F 43.5 °F 21.2 °F 37% 30.35 in 10.0 mi WSW 5.8 mph - N/A   Clear
6:56 PM 46.4 °F 44.3 °F 19.4 °F 34% 30.35 in 10.0 mi SSW 4.6 mph - N/A   Clear
7:16 PM 46.4 °F 43.5 °F 19.4 °F 34% 30.35 in 10.0 mi SSW 5.8 mph - N/A   Clear
7:36 PM 46.4 °F 42.4 °F 19.4 °F 34% 30.34 in 10.0 mi SW 8.1 mph - N/A   Clear
7:56 PM 44.6 °F 40.2 °F 19.4 °F 37% 30.34 in 10.0 mi SW 8.1 mph - N/A   Clear
8:16 PM 46.4 °F 41.9 °F 21.2 °F 37% 30.34 in 10.0 mi SSW 9.2 mph - N/A   Clear
8:36 PM 44.6 °F 41.4 °F 19.4 °F 37% 30.34 in 10.0 mi West 5.8 mph - N/A   Clear
8:56 PM 44.6 °F 41.4 °F 19.4 °F 37% 30.33 in 10.0 mi WSW 5.8 mph - N/A   Clear
9:16 PM 44.6 °F 43.1 °F 19.4 °F 37% 30.33 in 10.0 mi SW 3.5 mph - N/A   Clear
9:36 PM 42.8 °F 38.6 °F 21.2 °F 42% 30.33 in 10.0 mi South 6.9 mph - N/A   Clear
9:56 PM 42.8 °F 39.3 °F 21.2 °F 42% 30.34 in 10.0 mi South 5.8 mph - N/A   Clear
10:16 PM 41.0 °F 38.0 °F 21.2 °F 45% 30.34 in 10.0 mi SW 4.6 mph - N/A   Clear
10:36 PM 39.2 °F 35.0 °F 21.2 °F 49% 30.34 in 10.0 mi SW 5.8 mph - N/A   Clear
10:56 PM 39.2 °F 34.2 °F 21.2 °F 49% 30.34 in 10.0 mi SSW 6.9 mph - N/A   Clear
11:16 PM 39.2 °F 35.0 °F 21.2 °F 49% 30.34 in 10.0 mi SSW 5.8 mph - N/A   Scattered Clouds
11:36 PM 39.2 °F 35.9 °F 21.2 °F 49% 30.33 in 10.0 mi SW 4.6 mph - N/A   Overcast
11:56 PM 39.2 °F - 21.2 °F 49% 30.32 in 10.0 mi Calm Calm - N/A   Mostly Cloudy